Flag for Uzbekistan Weather past 2 weeks in Tashkent, Uzbekistan

Now
68 °F

Clear.


Feels Like: 68 °F
Forecast: 67 / 93 °F
Wind: 3 mph from Southeast

Location: Tashkent

Current Time: Jul 25, 2014 at 2:46:01 AM

Latest Report: Jul 25, 2014 at 2:00 AM


Visibility: 10 mi

Pressure: 29.80 "Hg

Humidity: 28%

Dew point: 34 °F

Location of TashkentLocation

Historic Weather in Tashkent — Graph

°F

Tashkent temperature yesterday

Maximum temperature yesterday: 91 °F (at 2:30 PM)
Minimum temperature yesterday: 73 °F (at 5:30 AM)
Average temperature yesterday: 83 °F

Past Weeks' High & Low Weather Summary

 TemperatureHumidityPressure
High104 °F (Jul 11, 2:30 PM)49% (Jul 17, 5:00 AM)29.86 "Hg (Jul 17, 5:00 AM)
Low64 °F (Jul 17, 4:00 AM)8% (Jul 15, 1:30 PM)29.59 "Hg (Jul 10, 1:00 AM)
Average84 °F22%29.73 "Hg
* Reported Jul 10 1:00 AM — Jul 25 1:00 AM, Tashkent, Weather by CustomWeather, © 2014

Note: Actual official high and low records may vary slightly from our data, if they occured in-between our weather recording intervals... More about our weather records

Advertising

Tashkent weather history for previous 24 hours

 ConditionsComfort  
Time TempWeatherWind HumidityBarometerVisibility
1:00 AM
Jul 25
73 °FClear.8 mph20%29.83 "Hg10 mi
12:30 AM77 °FClear.10 mph15%29.83 "Hg10 mi
12:00 AM79 °FPassing clouds.8 mph15%29.83 "HgN/A
11:30 PM
Jul 24
79 °FClear.10 mph15%29.83 "Hg10 mi
11:00 PM79 °FClear.10 mph15%29.83 "Hg10 mi
10:30 PM79 °FClear.10 mph15%29.86 "Hg10 mi
10:00 PM81 °FClear.10 mph13%29.86 "Hg10 mi
9:30 PM81 °FClear.10 mph12%29.86 "Hg10 mi
9:00 PM82 °FClear.13 mph11%29.86 "Hg10 mi
8:30 PM84 °FPassing clouds.8 mph10%29.86 "HgN/A
8:00 PM84 °FClear.8 mph10%29.83 "Hg10 mi
7:30 PM86 °FSunny.8 mph10%29.83 "Hg10 mi
7:00 PM88 °FSunny.8 mph9%29.83 "Hg10 mi
6:30 PM90 °FPassing clouds.10 mph8%29.83 "HgN/A
6:00 PM90 °FPassing clouds.10 mph8%29.80 "HgN/A
5:30 PM90 °FPassing clouds.10 mph8%29.80 "HgN/A
5:00 PM90 °FPassing clouds.13 mph8%29.80 "HgN/A
4:30 PM90 °FPassing clouds.13 mph9%29.83 "HgN/A
4:00 PM91 °FPassing clouds.13 mph9%29.83 "HgN/A
3:30 PM91 °FPassing clouds.13 mph9%29.83 "HgN/A
3:00 PM90 °FPassing clouds.13 mph10%29.83 "HgN/A
2:30 PM91 °FPassing clouds.13 mph10%29.83 "HgN/A
2:00 PM90 °FPassing clouds.13 mph11%29.83 "HgN/A
1:30 PM90 °FPassing clouds.10 mph12%29.83 "HgN/A
1:00 PM90 °FPassing clouds.13 mph12%29.86 "HgN/A
12:30 PM90 °FPassing clouds.10 mph12%29.86 "HgN/A
12:00 PM88 °FPassing clouds.13 mph13%29.86 "HgN/A
11:30 AM88 °FPassing clouds.10 mph13%29.86 "HgN/A
11:00 AM88 °FPassing clouds.13 mph13%29.86 "HgN/A
10:30 AM88 °FPassing clouds.10 mph13%29.86 "HgN/A
10:00 AM86 °FPassing clouds.8 mph14%29.86 "HgN/A
9:30 AM84 °FSunny.8 mph18%29.86 "Hg10 mi
9:00 AM82 °FPassing clouds.8 mph20%29.86 "HgN/A
8:30 AM81 °FPassing clouds.6 mph23%29.86 "HgN/A
8:00 AM79 °FPassing clouds.3 mph23%29.86 "HgN/A
7:30 AM77 °FPassing clouds.6 mph24%29.86 "HgN/A
7:00 AM77 °FPassing clouds.6 mph24%29.86 "HgN/A
6:30 AM75 °FPassing clouds.3 mph24%29.83 "HgN/A
6:00 AM73 °FPassing clouds.6 mph25%29.83 "HgN/A
5:30 AM73 °FSunny.6 mph23%29.83 "Hg10 mi
5:00 AM75 °FClear.6 mph22%29.80 "Hg10 mi
4:30 AM77 °FPassing clouds.6 mph21%29.80 "HgN/A
4:00 AM77 °FClear.8 mph21%29.80 "Hg10 mi
3:30 AM79 °FClear.8 mph20%29.80 "Hg10 mi
3:00 AM79 °FClear.10 mph20%29.80 "Hg10 mi
2:30 AM79 °FClear.10 mph18%29.77 "Hg10 mi
2:00 AM81 °FClear.10 mph17%29.77 "Hg10 mi
Weather by CustomWeather, © 2014

See weather overviewHow to use our weather pages